This is the latest recevied weather packets stored in our database for station/object OK3MS-5. If no packets are shown the sender has not sent any weather packets the latest 10 day(s).
| Time | Temp. | Humidity | Pressure | Rain* | Wind** | Luminosity | Snow |
|---|---|---|---|---|---|---|---|
| 1777797002 | 18.89° C | 43% | 1015.5 hPa | 0 mm | - | 591 W/m² | - |
| 1777796704 | 18.89° C | 44% | 1015.6 hPa | 0 mm | - | 577 W/m² | - |
| 1777796404 | 18.33° C | 44% | 1015.6 hPa | 0 mm | - | 562 W/m² | - |
| 1777796103 | 18.89° C | 44% | 1015.6 hPa | 0 mm | - | 546 W/m² | - |
| 1777795803 | 18.33° C | 44% | 1015.8 hPa | 0 mm | - | 543 W/m² | - |
| 1777795504 | 18.33° C | 45% | 1015.8 hPa | 0 mm | - | 529 W/m² | - |
| 1777795204 | 17.78° C | 46% | 1015.9 hPa | 0 mm | - | 517 W/m² | - |
| 1777794903 | 17.78° C | 46% | 1015.9 hPa | 0 mm | - | 499 W/m² | - |
| 1777794603 | 17.78° C | 46% | 1015.9 hPa | 0 mm | - | 484 W/m² | - |
| 1777794304 | 17.78° C | 46% | 1016 hPa | 0 mm | - | 469 W/m² | - |
| 1777794003 | 17.78° C | 46% | 1015.9 hPa | 0 mm | - | 446 W/m² | - |
| 1777793704 | 17.22° C | 46% | 1016 hPa | 0 mm | - | 427 W/m² | - |
| 1777793406 | 17.78° C | 46% | 1016 hPa | 0 mm | - | 413 W/m² | - |
| 1777793104 | 17.22° C | 46% | 1016 hPa | 0 mm | - | 396 W/m² | - |
| 1777792804 | 17.22° C | 47% | 1016 hPa | 0 mm | - | 378 W/m² | - |
| 1777792504 | 16.67° C | 47% | 1016.1 hPa | 0 mm | - | 374 W/m² | - |
| 1777792203 | 16.67° C | 47% | 1016.1 hPa | 0 mm | - | 361 W/m² | - |
| 1777791905 | 16.67° C | 47% | 1016.2 hPa | 0 mm | - | 349 W/m² | - |
| 1777791603 | 16.67° C | 47% | 1016.2 hPa | 0 mm | - | 344 W/m² | - |
| 1777791305 | 16.67° C | 49% | 1016.3 hPa | 0 mm | - | 328 W/m² | - |
| 1777791003 | 16.11° C | 49% | 1016.3 hPa | 0 mm | - | 311 W/m² | - |
| 1777790704 | 16.11° C | 49% | 1016.3 hPa | 0 mm | - | 292 W/m² | - |
| 1777790407 | 15.56° C | 50% | 1016.4 hPa | 0 mm | - | 277 W/m² | - |
| 1777790105 | 16.11° C | 49% | 1016.3 hPa | 0 mm | - | 274 W/m² | - |
| 1777789805 | 16.11° C | 49% | 1016.4 hPa | 0 mm | - | 255 W/m² | - |
* Rain latest hour (hover to see other rain measurements)
** Current wind speed in m/s (hover to see current wind gust speed)